Regional Weather Roundup
Issued by NWS

Home | Current Version | Previous Version | Text Only | Print | Product List | Glossary Off
Versions: 1 2 3 4 5 6 7 8 9 10 11 12 13 14 15 16 17 18 19 20 21 22 23 24 25 26 27 28 29 30 31 32 33 34 35 36 37 38 39 40 41 42 43 44 45 46 47 48 49 50

000
ASUS43 KBIS 241120
RWRND

NORTH DAKOTA REGIONAL WEATHER ROUNDUP
NATIONAL WEATHER SERVICE BISMARCK ND
600 AM CDT THU APR 24 2014

NOTE: "FAIR" INDICATES FEW OR NO CLOUDS BELOW 12,000 FEET WITH NO
SIGNIFICANT WEATHER AND/OR OBSTRUCTIONS TO VISIBILITY.


NDZ001>003-009>011-017-241200-
NORTHWEST NORTH DAKOTA

CITY           SKY/WX    TMP DP  RH WIND       PRES   REMARKS
WILLISTON      PTCLDY    38  27  64 SW7       29.69R
MINOT          CLEAR     39  31  72 SW13      29.66R
MINOT AFB      CLEAR     34  33  99 W10       29.65S
$$

NDZ018>021-031>035-040>046-241200-
SOUTHWEST NORTH DAKOTA

CITY           SKY/WX    TMP DP  RH WIND       PRES   REMARKS
BISMARCK       CLEAR     38  32  79 W3        29.73R
DICKINSON      CLEAR     34  23  64 W10       29.73S
GARRISON         N/A     33  29  85 W7        29.69S
HETTINGER ARPT CLEAR     29  22  75 W8        29.79S
$$

NDZ004>008-012>016-024-026-027-054-241200-
NORTHEAST NORTH DAKOTA

CITY           SKY/WX    TMP DP  RH WIND       PRES   REMARKS
GRAND FORKS    CLOUDY    39  37  93 SE10      29.77F
GRND FRKS AFB  CLOUDY    39  39 100 SE8       29.77S
DEVILS LAKE    CLOUDY    37  34  87 S6        29.72S VSB 1
$$

NDZ022-023-025-028>030-036>039-047>053-241200-
SOUTHEAST NORTH DAKOTA

CITY           SKY/WX    TMP DP  RH WIND       PRES   REMARKS
FARGO          CLOUDY    42  38  85 SE8       29.76S
JAMESTOWN      FOG       37  37 100 S6        29.72R VSB 1/4
$$




USA.gov is the U.S. government's official web portal to all federal, state and local government web resources and services.